星链-34169 (STARLINK-34169)

导读

STARLINK-34169是美国SpaceX星链星座中的一颗卫星,于2025年5月14日发射升空。作为星链互联网星座的组成部分,它承担着为全球提供高速宽带互联网服务的任务,尤其服务偏远地区与基础设施薄弱区域。该卫星延续了星链批量部署的特点,进一步扩充了低轨卫星星座规模,推动全球卫星互联网络的覆盖完善。

Basic Information
目录编号:
63999
目录名称:
STARLINK-34169
国际标识:
2025-101F
轨道中心:
EARTH
卫星名称:
星链-34169
卫星全名:
星链-34169 (STARLINK-34169)
卫星状态:
在轨 (已飞行396 天)
发射日期:
2025-05-14 UTC
国别 :
美国 (US)
星等 :
--
Orbit Information
数据来源 国际轨道数据 AOE轨道数据
星历时间 2026-06-13T15:50:16+0800
19小时前
查看轨道信息
2026-06-12T04:00:00+0800
2天前
查看轨道信息
半长轴 6861.07km 6861.236km
偏心率 0.0002648 0.0001975
轨道倾角 42.997° 42.998°
近地点辐角 111.768° 229.812°
升交点赤经 177.685° 186.120°
平近点角 248.346° 188.707°
近地点 481.116km 481.743km
远地点 484.75km 484.455km
周期 94.264分钟 94.268分钟
每日圈数 15.276191 15.275634
Detailed Information
固有亮度:
5
最大亮度:
2.5
卫星平台:
Starlink V1.0
覆盖范围:
全球
运营商:
太空探索技术公司
运营商所在国:
美国
制造商(研发单位):
太空探索技术公司
制造商所在国:
美国
使用方式:
暂无
Satellite Introduction
Starlink 计划是 SpaceX 推出的全球卫星互联网项目,通过发射低轨道卫星,为全球尤其是偏远地区提供高速、低延迟的互联网服务。自 2019 年起,Starlink 已部署数千颗卫星,旨在缩小全球数字鸿沟,推动互联网普及。该项目还为军事、航空等行业提供通信支持,带来广泛经济效益。
2D Orbit Map
3D Orbit Map
Orbit Altitude Analysis Chart
Orbit Inclination Analysis Chart
Orbit Comprehensive Analysis Chart
View Comprehensive Chart